Regional Weather Roundup
Issued by NWS Goodland, KS

Home | Current Version | Previous Version | Graphics & Text | Print | Product List | Glossary On
Versions: 1 2 3 4 5 6 7 8 9 10 11 12 13 14 15 16 17 18 19 20 21 22 23 24 25 26 27 28 29 30 31 32 33 34 35 36 37 38 39 40 41 42 43 44 45 46 47 48 49 50
000
ASUS43 KGLD 181759
RWRGLD

GOODLAND FORECAST AREA HOURLY WEATHER ROUNDUP
NATIONAL WEATHER SERVICE GOODLAND KS
1200 PM MDT THU SEP 18 2014

...OFFICIAL OBSERVATIONS...

CITY           SKY/WX    TMP DP  RH WIND       PRES   REMARKS
GOODLAND KS    SUNNY     75  63  66 SE7       30.00F
HILL CITY KS   CLOUDY    67  65  93 E8        29.97F FOG
IMPERIAL NEB   CLOUDY    67  62  84 S13       29.98F
MCCOOK NEB     CLOUDY    64  63  96 E8        30.00R FOG
AKRON CO         N/A    N/A N/A N/A MISG      30.01F
BURLINGTON CO  SUNNY     78  60  53 S9        30.01F
LIMON CO       SUNNY     85  33  15 S10       30.05F
$$

...UNOFFICIAL OBSERVATIONS...

CITY           SKY/WX    TMP DP  RH WIND       PRES   REMARKS
COLBY KS       CLOUDY    70  66  88 SE7       30.00F
GOVE KS          N/A     68  32  26 MISG        N/A
NORTON KS      CLOUDY    64  63  94 E9        29.98S FOG
SHARON SPRINGS   N/A     72  66  80 CALM        N/A
WAKEENEY KS      N/A     68  67  99 MISG        N/A
TRENTON NEB      N/A     64  32  30 CALM        N/A
YUMA CO          N/A     74  61  63 E5          N/A
$$



USA.gov is the U.S. government's official web portal to all federal, state and local government web resources and services.